Location: Wildcat Hills Observatory
(41.6350°N, 103.6812°W)
Time: 02:09:24
(UTC-06:00)

Cosmos 1634 Rocket - Visible Passes

Search period start: 25 July 2016 00:00
Search period end: 04 August 2016 00:00
Orbit: 961 x 991 km, 82.9° (Epoch: 24 July)

Date Brightness Start Highest point End Pass type
(mag) Time Alt. Az. Time Alt. Az. Time Alt. Az.
25 Jul 6.0 03:02:44 10° SE 03:07:18 22° E 03:11:53 10° NE visible
25 Jul 4.2 04:46:03 10° SSW 04:52:09 57° W 04:58:21 10° N visible
26 Jul 5.2 03:26:50 10° SSE 03:32:32 39° E 03:38:18 10° NNE visible
26 Jul 4.9 05:12:29 10° SW 05:17:58 32° WNW 05:23:32 10° N visible
27 Jul 4.2 03:52:30 14° S 03:57:56 71° E 04:04:13 10° NNE visible
28 Jul 6.1 02:34:40 10° ESE 02:38:48 19° E 02:42:58 10° NE visible
28 Jul 4.1 04:18:23 16° SSW 04:23:30 66° W 04:29:48 10° N visible
29 Jul 5.3 02:59:33 15° SE 03:03:59 34° E 03:09:34 10° NNE visible
29 Jul 4.7 04:44:15 13° SW 04:49:17 37° WNW 04:55:04 10° N visible
30 Jul 4.4 03:25:23 23° SSE 03:29:21 62° E 03:35:34 10° NNE visible
30 Jul 5.4 05:10:40 10° WSW 05:15:15 21° WNW 05:19:53 10° NNW visible
31 Jul 6.2 02:06:42 10° ESE 02:10:19 16° E 02:13:56 10° NE visible
31 Jul 4.0 03:51:13 26° SSW 03:54:53 76° W 04:01:14 10° N visible
01 Aug 5.5 02:32:18 19° SE 02:35:27 30° E 02:40:46 10° NNE visible
01 Aug 4.5 04:17:00 22° SW 04:20:36 42° WNW 04:26:35 10° N visible
02 Aug 4.5 02:58:04 32° SSE 03:00:47 53° E 03:06:54 10° NNE visible
02 Aug 5.3 04:42:46 14° WSW 04:46:31 24° WNW 04:51:32 10° NNW visible
03 Aug 6.3 01:39:07 10° ESE 01:41:51 14° ENE 01:44:46 10° NE visible
03 Aug 3.9 03:23:49 40° S 03:26:17 86° W 03:32:38 10° N visible
03 Aug 5.8 05:09:44 10° W 05:12:38 13° WNW 05:15:34 10° NW visible
